Location: Unspecified
(50.7693°N, 0.0000°E)
Time: 00:54:34
(UTC+00:00)

Transit 2A - Pass Details

Date: 25 June 2019
Orbit: 596 x 962 km, 66.7° (Epoch: 18 August)

Event Time Altitude Azimuth Distance (km) Brightness Sun altitude
Rises 22:09:37 0° 168° (SSE) 3,622 - -11.8°
Reaches altitude 10° 22:12:46 10° 153° (SSE) 2,692 - -12.0°
Exits shadow 22:14:17 15° 141° (SE) 2,338 7.9 -12.1°
Maximum altitude 22:17:20 21° 107° (ESE) 1,998 7.8 -12.3°
Drops below altitude 10° 22:21:51 10° 60° (ENE) 2,663 8.9 -12.6°
Sets 22:24:56 0° 46° (NE) 3,573 9.8 -12.8°
